Location: Zagreb
(45.8000°N, 16.0000°E)
Time: 09:04:09
(UTC+02:00)

Courier 1B Rocket - Pass Details

Date: 13 August 2022
Orbit: 920 x 1202 km, 28.2° (Epoch: 25 September)

Event Time Altitude Azimuth Distance (km) Brightness Sun altitude
Rises 16:24:09 0° 214° (SSW) 3,542 8.6 37.3°
Reaches altitude 10° 16:29:01 10° 180° (S) 2,604 7.6 36.5°
Maximum altitude 16:30:42 11° 164° (SSE) 2,532 7.3 36.3°
Drops below altitude 10° 16:32:22 10° 149° (SSE) 2,621 7.2 36.0°
Sets 16:37:20 0° 116° (ESE) 3,610 7.6 35.1°
